This is the latest recevied weather packets stored in our database for station/object W1TG-2. If no packets are shown the sender has not sent any weather packets the latest 10 day(s).
| Time | Temp. | Humidity | Pressure | Rain* | Wind** | Luminosity | Snow |
|---|---|---|---|---|---|---|---|
| 1788023524 | 22.78° C | 51% | 1021.2 hPa | 0 mm | - | - | - |
| 1788023164 | 22.78° C | 53% | 1021.2 hPa | 0 mm | - | - | - |
| 1788022803 | 22.78° C | 54% | 1021.2 hPa | 0 mm | - | - | - |
| 1788022444 | 22.78° C | 53% | 1021.2 hPa | 0 mm | - | - | - |
| 1788022084 | 22.78° C | 52% | 1021.2 hPa | 0 mm | - | - | - |
| 1788021723 | 22.78° C | 52% | 1021.3 hPa | 0 mm | - | - | - |
| 1788021364 | 22.78° C | 53% | 1021.3 hPa | 0 mm | - | - | - |
| 1788021004 | 22.78° C | 53% | 1021.3 hPa | 0 mm | - | - | - |
| 1788020643 | 22.78° C | 54% | 1021.5 hPa | 0 mm | - | - | - |
| 1788020284 | 22.78° C | 54% | 1021.5 hPa | 0 mm | - | - | - |
| 1788019924 | 22.78° C | 55% | 1021.6 hPa | 0 mm | - | - | - |
| 1788019563 | 22.78° C | 54% | 1021.6 hPa | 0 mm | - | - | - |
| 1788019204 | 22.78° C | 53% | 1021.7 hPa | 0 mm | - | - | - |
| 1788018844 | 23.33° C | 52% | 1021.6 hPa | 0 mm | - | - | - |
| 1788018483 | 23.33° C | 51% | 1021.5 hPa | 0 mm | - | - | - |
| 1788018124 | 23.89° C | 52% | 1021.7 hPa | 0 mm | - | - | - |
| 1788017764 | 23.89° C | 52% | 1021.8 hPa | 0 mm | - | - | - |
| 1788017403 | 23.89° C | 49% | 1021.7 hPa | 0 mm | - | - | - |
| 1788017044 | 23.89° C | 50% | 1021.7 hPa | 0 mm | - | - | - |
| 1788016683 | 23.89° C | 50% | 1021.8 hPa | 0 mm | - | - | - |
| 1788016323 | 23.89° C | 48% | 1021.8 hPa | 0 mm | - | - | - |
| 1788015964 | 23.89° C | 50% | 1021.9 hPa | 0 mm | - | - | - |
| 1788015603 | 23.33° C | 49% | 1021.9 hPa | 0 mm | - | - | - |
| 1788015243 | 23.33° C | 51% | 1021.9 hPa | 0 mm | - | - | - |
| 1788014884 | 23.33° C | 50% | 1021.9 hPa | 0 mm | - | - | - |
* Rain latest hour (hover to see other rain measurements)
** Current wind speed in m/s (hover to see current wind gust speed)